Weather History for KPLN - February, 2014

Change the Weather History Date:

Sunday, February 2, 2014

  Actual Average Record
Temperature  
Mean Temperature 10 °F -  
Max Temperature 15 °F 25 °F 43 °F (1991)
Min Temperature 3 °F 4 °F -31 °F (1976)
Degree Days  
Heating Degree Days 55    
Moisture  
Dew Point 6 °F    
Average Humidity 77    
Maximum Humidity 88    
Minimum Humidity 59    
Precipitation  
Precipitation 0.00 in - - ()
Sea Level Pressure  
Sea Level Pressure 30.14 in    
Wind  
Wind Speed 6 mph (WNW)    
Max Wind Speed 15 mph    
Max Gust Speed -    
Visibility 8 miles    
Events Snow    
Averages and records for this station are not official NWS values.
T = Trace of Precipitation, MM = Missing Value Source: NWS Daily Summary

Daily Weather History Graph

Daily Weather History Graph

Search for Another Location

Airport or City:

Trip Planner

Search our weather history database for the weather conditions in past years. The results will help you decide how hot, cold, wet, or windy it might be!

Date:

Astronomy

Feb. 02, 2014 Rise Set
Actual Time 7:59 AM EST 5:47 PM EST
Civil Twilight 7:27 AM EST 6:18 PM EST
Nautical Twilight 6:52 AM EST 6:54 PM EST
Astronomical Twilight 6:17 AM EST 7:28 PM EST
Moon 9:13 AM EST (2/2) 9:44 PM EST (2/2)
Length of Visible Light 10h 51m
Length of Day
9h 48m
Waxing Crescent, 11% of the Moon is Illuminated
Feb 2
Waxing Crescent
Feb 6
First Quarter
Feb 14
Full
Feb 22
Last Quarter
Mar 1
New

Hourly Weather History & Observations

Time (EST) Temp. Windchill Dew Point Humidity Pressure Visibility Wind Dir Wind Speed Gust Speed Precip Events Conditions
12:07 AM 10.9 °F - 7.0 °F 84% 29.97 in 10.0 mi Calm Calm - N/A   Overcast
12:19 AM 10.9 °F 4.7 °F 8.1 °F 88% 29.98 in 10.0 mi West 3.5 mph - N/A   Overcast
12:54 AM 14.0 °F 6.5 °F 10.9 °F 88% 30.04 in 10.0 mi WNW 4.6 mph - N/A   Overcast
1:54 AM 14.0 °F 5.1 °F 10.9 °F 88% 30.04 in 10.0 mi West 5.8 mph - N/A   Overcast
2:01 AM 14.0 °F 3.9 °F 10.9 °F 88% 29.99 in 10.0 mi WNW 6.9 mph - N/A   Overcast
2:17 AM 14.0 °F 2.9 °F 10.9 °F 88% 30.01 in 10.0 mi West 8.1 mph - N/A   Overcast
2:54 AM 12.9 °F 2.6 °F 9.0 °F 84% 30.06 in 10.0 mi West 6.9 mph - N/A   Overcast
3:45 AM 14.0 °F 3.9 °F 10.0 °F 84% 30.01 in 10.0 mi WNW 6.9 mph - N/A   Overcast
3:54 AM 14.0 °F 6.5 °F 10.0 °F 84% 30.06 in 9.0 mi West 4.6 mph - N/A   Overcast
4:50 AM 10.4 °F 0.8 °F 6.8 °F 85% 30.02 in 10.0 mi West 5.8 mph - N/A   Scattered Clouds
4:54 AM 10.0 °F 1.8 °F 7.0 °F 87% 30.06 in 10.0 mi West 4.6 mph - N/A   Partly Cloudy
5:54 AM 8.1 °F -0.5 °F 5.0 °F 87% 30.09 in 10.0 mi SW 4.6 mph - N/A   Mostly Cloudy
6:01 AM 8.1 °F 1.4 °F 5.0 °F 87% 30.04 in 10.0 mi SW 3.5 mph - N/A   Scattered Clouds
6:54 AM 6.1 °F -2.8 °F 3.0 °F 87% 30.10 in 10.0 mi West 4.6 mph - N/A   Clear
7:54 AM 10.0 °F 0.4 °F 6.1 °F 84% 30.12 in 10.0 mi West 5.8 mph - N/A   Overcast
8:54 AM 12.9 °F 3.8 °F 8.1 °F 81% 30.15 in 2.5 mi West 5.8 mph - 0.00 in Snow Light Snow
8:58 AM 12.9 °F 2.6 °F 8.1 °F 81% 30.09 in 3.0 mi West 6.9 mph - 0.00 in Snow Light Snow
9:16 AM 12.9 °F 1.6 °F 8.1 °F 81% 30.10 in 2.5 mi West 8.1 mph - 0.00 in Snow Light Snow
9:54 AM 14.0 °F 2.9 °F 9.0 °F 80% 30.16 in 2.0 mi WNW 8.1 mph - 0.00 in Snow Light Snow
10:54 AM 15.1 °F -0.1 °F 9.0 °F 77% 30.18 in 2.0 mi WNW 15.0 mph - 0.00 in Snow Light Snow
11:11 AM 15.1 °F -0.1 °F 9.0 °F 77% 30.13 in 2.5 mi WNW 15.0 mph - 0.00 in Snow Light Snow
11:21 AM 15.1 °F -0.1 °F 9.0 °F 77% 30.13 in 4.0 mi WNW 15.0 mph - 0.00 in Snow Light Snow
11:54 AM 15.1 °F 0.5 °F 8.1 °F 74% 30.19 in 6.0 mi NW 13.8 mph - 0.00 in   Haze
12:54 PM 15.1 °F 0.5 °F 6.1 °F 68% 30.20 in 8.0 mi WNW 13.8 mph - 0.00 in   Overcast
1:09 PM 14.0 °F -1.4 °F 5.0 °F 67% 30.15 in 10.0 mi WNW 15.0 mph - N/A   Overcast
1:20 PM 15.1 °F 0.5 °F 5.0 °F 64% 30.15 in 10.0 mi NW 13.8 mph - N/A   Overcast
1:33 PM 15.1 °F 1.1 °F 5.0 °F 64% 30.15 in 10.0 mi WNW 12.7 mph - N/A   Mostly Cloudy
1:46 PM 15.1 °F 0.5 °F 3.9 °F 61% 30.14 in 10.0 mi NW 13.8 mph - N/A   Scattered Clouds
1:54 PM 15.1 °F 1.8 °F 3.9 °F 61% 30.19 in 10.0 mi NW 11.5 mph - N/A   Partly Cloudy
2:54 PM 15.1 °F 2.5 °F 3.0 °F 59% 30.20 in 10.0 mi NW 10.4 mph - N/A   Overcast
3:54 PM 14.0 °F -0.2 °F 3.0 °F 62% 30.21 in 10.0 mi WNW 12.7 mph - N/A   Overcast
4:54 PM 12.9 °F 0.7 °F 1.9 °F 62% 30.25 in 4.0 mi WNW 9.2 mph - N/A   Haze
5:54 PM 12.0 °F -0.4 °F 1.9 °F 64% 30.27 in 10.0 mi WNW 9.2 mph - N/A   Overcast
6:54 PM 10.9 °F 2.9 °F 1.9 °F 67% 30.29 in 10.0 mi NW 4.6 mph - N/A   Overcast
7:54 PM 9.0 °F 2.4 °F 1.0 °F 70% 30.29 in 10.0 mi WNW 3.5 mph - N/A   Overcast
8:37 PM 9.0 °F - 1.0 °F 70% 30.23 in 10.0 mi Calm Calm - N/A   Overcast
8:54 PM 10.0 °F - 1.9 °F 70% 30.27 in 10.0 mi Calm Calm - N/A   Overcast
9:54 PM 8.1 °F 1.4 °F 1.9 °F 76% 30.26 in 10.0 mi North 3.5 mph - N/A   Overcast
10:54 PM 5.0 °F - -0.0 °F 80% 30.27 in 10.0 mi Calm Calm - N/A   Overcast
11:54 PM 3.9 °F - -0.0 °F 84% 30.28 in 9.0 mi Calm Calm - N/A   Mostly Cloudy